User: anonymous   Login
Location: Unspecified
(41.1637°N, 0.0000°E)
Time: 10:40:50
(UTC+00:00)
Language:

CAS-4B - Orbit

View from above orbital plane
View from above orbital plane
View from above satellite
View from above satellite

Ground track
Ground track

The orbit data is extracted from the following two-line orbital elements,

1 42759U 17034B   19231.92906804 -.00000063 +00000-0 +97158-5 0  9991
2 42759 043.0170 248.9506 0012885 284.5774 146.4618 15.09612558120240
Epoch (UTC): 19 August 2019 22:17:51
Eccentricity: 0.0012885
inclination: 43.0170°
perigee height: 528 km
apogee height: 546 km
right ascension of ascending node: 248.9506°
argument of perigee: 284.5774°
revolutions per day: 15.09612558
mean anomaly at epoch: 146.4618°
orbit number at epoch: 12024

The dashed part of the orbit path shows where the satellite is in the earth's shadow,  

DLR